This is the latest recevied weather packets stored in our database for station/object ON6OO-13. If no packets are shown the sender has not sent any weather packets the latest 10 day(s).
| Time | Temp. | Humidity | Pressure | Rain* | Wind** | Luminosity | Snow |
|---|---|---|---|---|---|---|---|
| 1777898625 | 18.33° C | 77% | 1012.8 hPa | 0 mm | - | - | - |
| 1777897713 | 17.78° C | 80% | 1012.8 hPa | 0 mm | - | - | - |
| 1777896801 | 17.78° C | 79% | 1012.8 hPa | 0 mm | - | - | - |
| 1777895889 | 17.78° C | 81% | 1013.2 hPa | 0 mm | - | - | - |
| 1777894977 | 17.78° C | 81% | 1013.2 hPa | 0 mm | - | - | - |
| 1777894065 | 17.78° C | 81% | 1013.2 hPa | 0 mm | - | - | - |
| 1777893153 | 17.78° C | 80% | 1013.2 hPa | 0 mm | - | - | - |
| 1777892241 | 17.22° C | 82% | 1013.5 hPa | 0 mm | - | - | - |
| 1777891329 | 16.67° C | 83% | 1013.2 hPa | 0 mm | - | - | - |
| 1777890417 | 16.11° C | 85% | 1013.5 hPa | 0 mm | - | - | - |
| 1777889505 | 15.56° C | 87% | 1013.5 hPa | 0 mm | - | - | - |
| 1777888593 | 15° C | 89% | 1013.5 hPa | 0 mm | - | - | - |
| 1777887680 | 15° C | 90% | 1013.5 hPa | 0 mm | - | - | - |
| 1777886769 | 14.44° C | 93% | 1013.5 hPa | 0 mm | - | - | - |
| 1777885857 | 14.44° C | 97% | 1013.5 hPa | 0 mm | - | - | - |
| 1777884945 | 14.44° C | 99% | 1013.5 hPa | 0 mm | - | - | - |
| 1777884033 | 14.44° C | 99% | 1013.5 hPa | 0 mm | - | - | - |
| 1777883121 | 13.89° C | 99% | 1013.5 hPa | 0 mm | - | - | - |
| 1777882208 | 13.89° C | 99% | 1013.2 hPa | 0 mm | - | - | - |
| 1777881297 | 13.89° C | 99% | 1013.5 hPa | 0 mm | - | - | - |
| 1777880384 | 13.89° C | 99% | 1013.5 hPa | 0 mm | - | - | - |
| 1777877893 | 13.33° C | 99% | 1005.4 hPa | 0 mm | - | - | - |
| 1777876981 | 13.33° C | 99% | 1005 hPa | 0 mm | - | - | - |
| 1777876069 | 13.33° C | 99% | 1005 hPa | 0 mm | - | - | - |
| 1777875157 | 12.78° C | 99% | 1005 hPa | 0 mm | - | - | - |
* Rain latest hour (hover to see other rain measurements)
** Current wind speed in m/s (hover to see current wind gust speed)